| time (UTC) | temp C | wind direction | speed KPH | gust KPH | rain 1hr cm | rain 24hr cm | rain mn cm | humidity % | barometer mb |
| 20260505231004 | 2 | 286 | 0.0 | 0.0 | 0.08 | 0.94 | 0.10 | 90 | 1003.7 |
| 20260505224005 | 2 | 286 | 0.0 | 0.0 | 0.18 | 0.91 | 0.08 | 91 | 1003.6 |
| 20260505223005 | 2 | 286 | 0.0 | 0.0 | 0.23 | 0.91 | 0.08 | 91 | 1003.5 |
| 20260505222005 | 2 | 286 | 0.0 | 0.0 | 0.30 | 0.89 | 0.05 | 91 | 1003.5 |
| 20260505221005 | 2 | 286 | 0.0 | 0.0 | 0.30 | 0.86 | 0.03 | 91 | 1003.4 |
| 20260505220005 | 1 | 286 | 0.0 | 0.0 | 0.30 | 0.84 | 0.00 | 91 | 1003.4 |
| 20260505215005 | 1 | 286 | 0.0 | 0.0 | 0.30 | 0.81 | 0.81 | 91 | 1003.4 |
| 20260505214005 | 1 | 286 | 0.0 | 0.0 | 0.23 | 0.74 | 0.74 | 92 | 1003.3 |
| 20260505213004 | 1 | 286 | 0.0 | 0.0 | 0.23 | 0.71 | 0.71 | 92 | 1003.3 |
| 20260505212005 | 1 | 213 | 0.0 | 0.0 | 0.13 | 0.61 | 0.61 | 91 | 1003.2 |
| 20260505210004 | 1 | 213 | 0.0 | 0.0 | 0.05 | 0.53 | 0.53 | 91 | 1003.3 |
| 20260505205005 | 2 | 213 | 0.0 | 0.0 | 0.05 | 0.51 | 0.51 | 91 | 1003.2 |
| 20260505204005 | 2 | 213 | 0.0 | 0.0 | 0.03 | 0.51 | 0.51 | 91 | 1003.1 |
| 20260505203005 | 2 | 213 | 0.0 | 0.0 | 0.00 | 0.48 | 0.48 | 92 | 1003.1 |
| 20260505202005 | 2 | 213 | 0.0 | 0.0 | 0.00 | 0.48 | 0.48 | 92 | 1003.1 |
| 20260505201005 | 2 | 213 | 0.0 | 0.0 | 0.00 | 0.48 | 0.48 | 91 | 1003.0 |
| 20260505200004 | 2 | 211 | 0.0 | 0.0 | 0.00 | 0.48 | 0.48 | 91 | 1003.0 |
| 20260505195005 | 2 | 211 | 0.0 | 0.0 | 0.00 | 0.48 | 0.48 | 91 | 1003.0 |
| 20260505194004 | 2 | 211 | 0.0 | 0.0 | 0.00 | 0.48 | 0.48 | 91 | 1003.1 |
| 20260505193004 | 2 | 211 | 0.0 | 0.0 | 0.03 | 0.48 | 0.48 | 91 | 1003.1 |
| 20260505192005 | 2 | 211 | 0.0 | 0.0 | 0.03 | 0.48 | 0.48 | 91 | 1003.2 |
| 20260505191005 | 2 | 211 | 0.0 | 0.0 | 0.03 | 0.48 | 0.48 | 91 | 1003.1 |
| 20260505190005 | 2 | 211 | 0.0 | 0.0 | 0.03 | 0.48 | 0.48 | 91 | 1003.0 |
| 20260505185004 | 2 | 211 | 0.0 | 0.0 | 0.05 | 0.48 | 0.48 | 91 | 1003.1 |
| 20260505183004 | 2 | 223 | 0.0 | 0.0 | 0.03 | 0.46 | 0.46 | 91 | 1003.1 |
| 20260505182005 | 2 | 223 | 0.0 | 0.0 | 0.03 | 0.46 | 0.46 | 91 | 1003.1 |
| 20260505181006 | 2 | 223 | 0.0 | 0.0 | 0.05 | 0.46 | 0.46 | 91 | 1003.0 |
| 20260505180006 | 2 | 268 | 0.0 | 0.0 | 0.05 | 0.46 | 0.46 | 91 | 1003.0 |
| 20260505175005 | 3 | 202 | 0.0 | 0.0 | 0.05 | 0.43 | 0.43 | 91 | 1003.0 |
| 20260505174006 | 2 | 214 | 0.0 | 0.0 | 0.05 | 0.43 | 0.43 | 91 | 1003.0 |
| 20260505173006 | 2 | 205 | 0.0 | 0.0 | 0.05 | 0.43 | 0.43 | 91 | 1003.0 |
| 20260505172005 | 2 | 205 | 0.0 | 0.0 | 0.05 | 0.43 | 0.43 | 92 | 1003.0 |
| 20260505171006 | 2 | 205 | 0.0 | 0.0 | 0.03 | 0.43 | 0.43 | 91 | 1003.0 |
| 20260505170005 | 2 | 205 | 0.0 | 0.0 | 0.03 | 0.43 | 0.43 | 92 | 1003.1 |
| 20260505165006 | 2 | 212 | 0.0 | 0.0 | 0.03 | 0.41 | 0.41 | 92 | 1003.1 |
| 20260505164006 | 2 | 213 | 0.0 | 0.0 | 0.03 | 0.41 | 0.41 | 92 | 1003.0 |
| 20260505163007 | 2 | 213 | 0.0 | 0.0 | 0.03 | 0.41 | 0.41 | 93 | 1003.1 |
| 20260505162006 | 2 | 213 | 0.0 | 0.0 | 0.03 | 0.41 | 0.41 | 92 | 1003.1 |
| 20260505161006 | 2 | 212 | 0.0 | 0.0 | 0.05 | 0.41 | 0.41 | 91 | 1003.2 |
| 20260505153006 | 2 | 213 | 0.0 | 0.0 | 0.08 | 0.38 | 0.38 | 91 | 1003.5 |
| 20260505152006 | 2 | 213 | 0.0 | 0.0 | 0.08 | 0.38 | 0.38 | 89 | 1003.5 |
| 20260505151006 | 2 | 214 | 0.0 | 0.0 | 0.05 | 0.33 | 0.33 | 88 | 1003.4 |
| 20260505125005 | 3 | 276 | 0.0 | 0.0 | 0.05 | 0.23 | 0.23 | 84 | 1002.4 |
| 20260505124006 | 4 | 226 | 0.0 | 0.0 | 0.05 | 0.23 | 0.23 | 81 | 1002.4 |
| 20260505123006 | 5 | 254 | 0.0 | 0.0 | 0.03 | 0.20 | 0.20 | 79 | 1002.4 |
| 20260505122005 | 6 | 209 | 0.0 | 0.0 | 0.00 | 0.18 | 0.18 | 79 | 1002.1 |
| 20260505115006 | 4 | 204 | 0.0 | 0.0 | 0.00 | 0.18 | 0.18 | 90 | 1002.2 |
| 20260505113005 | 5 | 220 | 0.0 | 0.0 | 0.00 | 0.18 | 0.18 | 77 | 1001.9 |
| 20260505112005 | 6 | 227 | 0.0 | 0.0 | 0.00 | 0.18 | 0.18 | 79 | 1001.7 |
| 20260505111005 | 6 | 225 | 0.0 | 0.0 | 0.00 | 0.18 | 0.18 | 81 | 1001.6 |
| 20260505102006 | 3 | 220 | 0.0 | 0.0 | 0.03 | 0.23 | 0.18 | 88 | 1001.7 |
| 20260505101006 | 4 | 220 | 0.0 | 0.0 | 0.03 | 0.23 | 0.18 | 88 | 1001.6 |
| 20260505094006 | 4 | 203 | 0.0 | 0.0 | 0.00 | 0.30 | 0.15 | 92 | 1001.6 |
| 20260505093005 | 3 | 198 | 0.0 | 0.0 | 0.00 | 0.33 | 0.15 | 93 | 1001.6 |
| 20260505092005 | 3 | 202 | 0.0 | 0.0 | 0.00 | 0.33 | 0.15 | 93 | 1001.7 |
| 20260505091005 | 2 | 205 | 0.0 | 0.0 | 0.03 | 0.36 | 0.15 | 92 | 1001.7 |
| 20260505090005 | 2 | 211 | 0.0 | 0.0 | 0.05 | 0.36 | 0.15 | 92 | 1001.8 |
| 20260505085006 | 2 | 202 | 0.0 | 0.0 | 0.05 | 0.38 | 0.15 | 92 | 1001.8 |
| 20260505084006 | 1 | 202 | 0.0 | 0.0 | 0.05 | 0.43 | 0.15 | 91 | 1001.7 |
| 20260505083006 | 1 | 225 | 0.0 | 0.0 | 0.08 | 0.46 | 0.15 | 90 | 1001.7 |
| 20260505081006 | 2 | 173 | 0.0 | 0.0 | 0.13 | 0.51 | 0.15 | 89 | 1001.6 |
| 20260505080005 | 2 | 178 | 0.0 | 0.0 | 0.08 | 0.51 | 0.10 | 89 | 1001.6 |
| 20260505075005 | 2 | 177 | 0.0 | 0.0 | 0.08 | 0.53 | 0.10 | 89 | 1001.5 |
| 20260505073005 | 2 | 219 | 0.0 | 0.0 | 0.05 | 0.58 | 0.08 | 87 | 1001.4 |
| 20260505072005 | 2 | 219 | 0.0 | 0.0 | 0.00 | 0.53 | 0.03 | 86 | 1001.4 |
| 20260505071006 | 3 | 209 | 0.0 | 0.0 | 0.00 | 0.56 | 0.03 | 87 | 1001.2 |
| 20260505070006 | 2 | 210 | 0.0 | 0.0 | 0.00 | 0.61 | 0.03 | 88 | 1001.2 |
| 20260505065005 | 2 | 222 | 0.0 | 0.0 | 0.00 | 0.64 | 0.03 | 87 | 1001.1 |
| 20260505064005 | 2 | 213 | 0.0 | 0.0 | 0.00 | 0.66 | 0.03 | 87 | 1001.1 |
| 20260505063005 | 2 | 208 | 0.0 | 0.0 | 0.00 | 0.71 | 0.03 | 87 | 1000.9 |
| 20260505061005 | 2 | 203 | 0.0 | 0.0 | 0.00 | 0.71 | 0.03 | 88 | 1000.9 |
| 20260505060005 | 2 | 265 | 0.0 | 0.0 | 0.00 | 0.71 | 0.03 | 87 | 1000.9 |
| 20260505055006 | 2 | 266 | 0.0 | 0.0 | 0.00 | 0.71 | 0.03 | 87 | 1000.9 |
| 20260505054005 | 2 | 267 | 0.0 | 0.0 | 0.00 | 0.71 | 0.03 | 88 | 1000.9 |
| 20260505053005 | 1 | 229 | 0.0 | 0.0 | 0.00 | 0.71 | 0.03 | 91 | 1000.9 |
| 20260505052005 | 1 | 229 | 0.0 | 0.0 | 0.00 | 0.71 | 0.03 | 92 | 1000.9 |
| 20260505051005 | 1 | 309 | 0.0 | 0.0 | 0.00 | 0.71 | 0.03 | 92 | 1000.9 |
| 20260505040005 | 0 | 42 | 0.0 | 0.0 | 0.00 | 0.71 | 0.03 | 93 | 1000.5 |
| 20260505035005 | 0 | 42 | 0.0 | 0.0 | 0.00 | 0.71 | 0.03 | 92 | 1000.6 |
| 20260505034005 | 0 | 42 | 0.0 | 0.0 | 0.00 | 0.71 | 0.03 | 92 | 1000.4 |
| 20260505032005 | 0 | 205 | 0.0 | 0.0 | 0.00 | 0.71 | 0.03 | 91 | 1000.4 |
| 20260505031005 | 0 | 205 | 0.0 | 0.0 | 0.00 | 0.71 | 0.03 | 91 | 1000.5 |
| 20260505030005 | 0 | 205 | 0.0 | 0.0 | 0.00 | 0.71 | 0.03 | 91 | 1000.5 |
| 20260505025005 | 0 | 205 | 0.0 | 0.0 | 0.00 | 0.71 | 0.03 | 91 | 1000.6 |
| 20260505024005 | 0 | 205 | 0.0 | 0.0 | 0.00 | 0.71 | 0.03 | 91 | 1000.6 |
| 20260505023004 | 0 | 205 | 0.0 | 0.0 | 0.00 | 0.71 | 0.03 | 91 | 1000.6 |
| 20260505022005 | 0 | 205 | 0.0 | 0.0 | 0.00 | 0.71 | 0.03 | 91 | 1000.6 |
| 20260505021005 | 0 | 205 | 0.0 | 0.0 | 0.00 | 0.71 | 0.03 | 90 | 1000.6 |
| 20260505020005 | 0 | 205 | 0.0 | 0.0 | 0.00 | 0.71 | 0.03 | 90 | 1000.5 |
| 20260505015005 | 1 | 205 | 0.0 | 0.0 | 0.00 | 0.71 | 0.03 | 90 | 1000.3 |
| 20260505014005 | 1 | 285 | 0.0 | 0.0 | 0.00 | 0.71 | 0.03 | 91 | 1000.1 |
| 20260505013005 | 1 | 291 | 0.0 | 0.0 | 0.00 | 0.71 | 0.03 | 91 | 1000.3 |
| 20260505012005 | 1 | 109 | 0.0 | 0.0 | 0.00 | 0.71 | 0.03 | 91 | 1000.5 |
| 20260505010005 | 1 | 335 | 0.0 | 0.0 | 0.00 | 0.71 | 0.03 | 91 | 1000.4 |
| 20260505005005 | 1 | 335 | 0.0 | 0.0 | 0.03 | 0.71 | 0.03 | 90 | 1000.3 |
| 20260505003005 | 1 | 335 | 0.0 | 0.0 | 0.03 | 0.71 | 0.03 | 89 | 1000.4 |
| 20260505002005 | 1 | 336 | 0.0 | 0.0 | 0.03 | 0.71 | 0.03 | 89 | 1000.5 |
| 20260505000004 | 1 | 225 | 0.0 | 0.0 | 0.03 | 0.71 | 0.03 | 89 | 1000.5 |
| 20260504235005 | 1 | 260 | 0.0 | 0.0 | 0.00 | 0.71 | 0.00 | 88 | 1000.5 |